Back to catalog

STARLINK-31962

AliveCommunicationsVLEO
NORAD 59936·PAYLOAD·🇺🇸 United States

Launched Jun 1, 2024 from Cape Canaveral Space Force Station

Loading…

Next Passes (next 24 hours)

TLE

FreshSource: CelesTrak SupGP

Epoch: Sep 14, 2026, 20:56 UTC

1 59936C 24106Q   26257.87270833 -.00010874  00000+0 -39395-3 0  2575
2 59936  43.0029 344.4207 0001613 279.1822  34.3168 15.27574714    17

Track STARLINK-31962 in real time with AllMySat

Download on the App Store